EW4971 Weather Reports


time (UTC)temp
C
wind
direction
speed
KPH
gust
KPH
rain 1hr
cm
rain 24hr
cm
rain mn
cm
humidity
%
barometer
mb
20260507040006 -17 109 0.0 0.0 0.00 0.00 0.00 1017.9
20260507034518 -17 149 0.0 0.0 0.00 0.00 0.00 1017.9
20260507033005 -17 100 0.0 0.0 0.00 0.00 0.00 1017.7
20260507031505 -17 108 0.0 0.0 0.00 0.00 0.00 1017.4
20260507030008 -17 107 0.0 0.0 0.00 0.00 0.00 1017.2
20260507024558 -17 45 0.0 0.0 0.00 0.00 0.00 1017.0
20260507023054 -17 79 0.0 0.0 0.00 0.00 0.00 1016.9
20260507021549 -17 97 0.0 0.0 0.00 0.00 0.00 1016.9
20260507020045 -17 102 0.0 0.0 0.00 0.00 0.00 1016.9
20260507014549 -17 59 0.0 11.3 0.00 0.00 0.00 1016.9
20260507013047 -17 78 6.4 11.3 0.00 0.00 0.00 1016.9
20260507011534 -17 68 6.4 12.9 0.00 0.00 0.00 1016.9
20260507010034 -17 190 4.8 11.3 0.00 0.00 0.00 1016.8
20260507004524 -17 203 6.4 11.3 0.00 0.00 0.00 1016.7
20260507003018 -17 222 4.8 11.3 0.00 0.00 0.00 1016.7
20260507001515 -17 250 4.8 12.9 0.00 0.00 0.00 1016.7
20260507000016 -17 220 6.4 12.9 0.00 0.00 0.00 1016.7
20260506234515 -17 186 8.0 14.5 0.00 0.00 0.00 1016.8
20260506233004 -17 218 8.0 14.5 0.00 0.00 0.00 1016.9
20260506231618 -17 275 8.0 16.1 0.00 0.00 0.00 1016.9
20260506224550 -17 246 9.7 17.7 0.00 0.00 0.00 1017.3
20260506223049 -17 261 8.0 19.3 0.00 0.00 0.00 1017.4
20260506221550 -17 285 0.0 0.0 0.00 0.00 0.00 1017.7
20260506220036 -17 217 0.0 0.0 0.00 0.00 0.00 1017.8
20260506214531 -17 221 0.0 0.0 0.00 0.00 0.00 1018.1
20260506213028 -17 242 0.0 0.0 0.00 0.00 0.00 1018.2
20260506211527 -17 202 0.0 0.0 0.00 0.00 0.00 1018.4
20260506210026 -17 239 0.0 0.0 0.00 0.00 0.00 1018.4
20260506204513 -17 237 0.0 0.0 0.00 0.00 0.00 1018.5
20260506203009 -17 237 0.0 0.0 0.00 0.00 0.00 1018.7
20260506201504 -17 182 0.0 0.0 0.00 0.00 0.00 1018.9
20260506200100 -17 226 0.0 0.0 0.00 0.00 0.00 1019.0
20260506194556 -17 246 0.0 0.0 0.00 0.00 0.00 1019.1
20260506193052 -17 225 0.0 0.0 0.00 0.00 0.00 1019.2
20260506191547 -17 230 0.0 0.0 0.00 0.00 0.00 1019.4
20260506190042 -17 191 0.0 0.0 0.00 0.00 0.00 1019.5
20260506184538 -17 246 0.0 0.0 0.00 0.00 0.00 1019.5
20260506183036 -17 242 0.0 0.0 0.00 0.00 0.00 1019.6
20260506181530 -17 261 0.0 16.1 0.00 0.00 0.00 1019.7
20260506180023 -17 271 6.4 14.5 0.00 0.00 0.00 1019.7
20260506174519 -17 244 6.4 16.1 0.00 0.00 0.00 1019.7
20260506173022 -17 246 6.4 14.5 0.00 0.00 0.00 1019.7
20260506171512 -17 210 4.8 12.9 0.00 0.00 0.00 1019.7
20260506170006 -17 190 4.8 11.3 0.00 0.00 0.00 1019.7
20260506164503 -17 186 6.4 11.3 0.00 0.00 0.00 1019.7
20260506163106 -17 189 4.8 11.3 0.00 0.00 0.00 1019.8
20260506161554 -17 186 4.8 11.3 0.00 0.00 0.00 1019.8
20260506160104 -17 151 4.8 9.7 0.00 0.00 0.00 1019.9
20260506154551 -17 140 3.2 8.0 0.00 0.00 0.00 1019.9
20260506153040 -17 142 3.2 6.4 0.00 0.00 0.00 1019.9
20260506151536 -17 144 3.2 6.4 0.00 0.00 0.00 1019.9
20260506150031 -17 144 0.0 0.0 0.00 0.00 0.00 1020.0
20260506144531 -17 355 0.0 0.0 0.00 0.00 0.00 1020.0
20260506143031 -17 355 0.0 0.0 0.00 0.00 0.00 1020.0
20260506141517 -17 355 0.0 0.0 0.00 0.00 0.00 1019.9
20260506140013 -17 0.0 0.0 0.00 0.00 0.00 1019.7
20260506134508 -17 0.0 0.0 0.00 0.00 0.00 1019.6
20260506133006 -17 0.0 0.0 0.00 0.00 0.00 1019.4
20260506131600 -17 355 0.0 0.0 0.00 0.00 0.00 1019.2
20260506130055 -17 355 0.0 0.0 0.00 0.00 0.00 1019.1
20260506124550 -17 355 0.0 4.8 0.00 0.00 0.00 1019.0
20260506123047 -17 5 1.6 8.0 0.00 0.00 0.00 1019.0
20260506121548 -17 351 0.0 1.6 0.00 0.00 0.00 1018.9
20260506120137 -17 351 0.0 3.2 0.00 0.00 0.00 1018.8
20260506114532 -17 348 0.0 0.0 0.00 0.00 0.00 1018.7
20260506113028 -17 348 0.0 0.0 0.00 0.00 0.00 1018.7
20260506111523 -17 355 0.0 0.0 0.00 0.00 0.00 1018.7
20260506110024 -17 355 0.0 0.0 0.00 0.00 0.00 1018.6
20260506104515 -17 5 0.0 4.8 0.00 0.00 0.00 1018.5
20260506103023 -17 5 0.0 4.8 0.00 0.00 0.00 1018.5
20260506101506 -17 360 0.0 3.2 0.00 0.00 0.00 1018.5
20260506100001 -17 360 0.0 3.2 0.00 0.00 0.00 1018.6
20260506094557 -17 360 0.0 3.2 0.00 0.00 0.00 1018.6
20260506093054 -17 360 0.0 4.8 0.00 0.00 0.00 1018.7
20260506091549 -17 360 0.0 4.8 0.00 0.00 0.00 1018.7
20260506090044 -17 360 0.0 0.0 0.00 0.00 0.00 1018.6
20260506084539 -17 360 0.0 0.0 0.00 0.00 0.00 1018.5
20260506083040 -17 360 0.0 0.0 0.00 0.00 0.00 1018.5
20260506081530 -17 360 0.0 0.0 0.00 0.00 0.00 1018.5
20260506073016 -17 360 0.0 1.6 0.00 0.00 0.00 1018.2
20260506071512 -17 360 0.0 3.2 0.00 0.00 0.00 1018.2
20260506061554 -17 360 0.0 0.0 0.00 0.00 0.00 1017.8
20260506044536 -17 360 1.6 3.2 0.00 0.00 0.00 1017.3
20260506043024 -17 360 0.0 1.6 0.00 0.00 0.00 1017.2
20260506041521 -17 360 0.0 1.6 0.00 0.00 0.00 1017.1